OpenBCM V1.07b12 (Linux)

Packet Radio Mailbox

DB0FHN

[JN59NK Nuernberg]

 Login: GUEST





  
WG3K   > KEPS     22.12.24 01:43l 351 Lines 16787 Bytes #999 (0) @ AMSAT
BID : ORB24357.1
Read: DJ6UX GUEST
Subj: 2Line Orbital Elements 24357.AMSAT
Path: DB0FHN<DB0RKB<DK0WUE<DK0WUE<VK5RSV<VK2RZ<W0ARP<N3HYM<WG3K
Sent: 241222/0036Z 11169@WG3K.#SMD.MD.USA.NOAM LinBPQ6.0.24


QST de W1STR

AMSAT Orbital Elements for Amateur Satellites in TLE Format
From Orbital Analysis Office
New England Sci-Tech STEM Education Center
Natick, MA December 22, 2024
To all radio amateurs


These element sets describe the orbits of various satellites 
in use by the amateur radio community. For details see:
www.amsat.org/keplerian-elements-formats/

A daily update of element sets is available at:
www.amsat.org/tle/daily-bulletin.txt
or without bulletin text:
www.amsat.org/tle/dailytle.txt


AO-07
1 07530U 74089B   24356.45942785 -.00000033  00000-0  82774-4 0  9996
2 07530 101.9903 352.9401 0012399  86.8604  81.5001 12.53683922292504
UO-11
1 14781U 84021B   24356.50582788  .00002841  00000-0  31305-3 0  9999
2 14781  97.7320 320.6151 0007958 166.6992 193.4436 14.88290299176339
AO-27
1 22825U 93061C   24356.14023746  .00000273  00000-0  12188-3 0  9990
2 22825  98.7640  50.6382 0007424 249.4867 110.5519 14.30685076629342
FO-29
1 24278U 96046B   24356.25662501  .00000040  00000-0  74637-4 0  9990
2 24278  98.5886 266.4280 0350844  63.8322 299.8457 13.53226480399734
NOAA-15
1 25338U 98030A   24356.55673421  .00000321  00000-0  15002-3 0  9991
2 25338  98.5526  19.6449 0011059 133.1371 227.0736 14.26830892384157
GO-32
1 25397U 98043D   24356.40409768  .00000236  00000-0  12234-3 0  9994
2 25397  98.9492 326.1879 0001410  25.2155 334.9092 14.24215243374069
ISS
1 25544U 98067A   24356.79022119  .00014650  00000-0  25658-3 0  9996
2 25544  51.6409 105.8805 0007881   7.6568 177.1130 15.50809291487649
NO-44
1 26931U 01043C   24356.60630643  .00000334  00000-0  15672-3 0  9991
2 26931  67.0492 207.2527 0006571 260.3417  99.6943 14.31546525212773
SO-50
1 27607U 02058C   24356.33938918  .00002609  00000-0  35438-3 0  9994
2 27607  64.5554   5.6286 0035850  20.2484 340.0033 14.80543038184014
CO-55
1 27844U 03031E   24356.48408599  .00000698  00000-0  32490-3 0  9993
2 27844  98.6779   0.9705 0009082 326.9386  33.1224 14.23711722114438
CO-57
1 27848U 03031J   24356.00361816  .00000635  00000-0  30084-3 0  9993
2 27848  98.6807   0.6258 0009286 345.8942  14.1976 14.23087811114100
RS-22
1 27939U 03042A   24356.59165605  .00002605  00000-0  42865-3 0  9997
2 27939  98.3082 156.2152 0011561 183.0485 250.1898 14.71412302135699
NOAA-18
1 28654U 05018A   24356.52882646  .00000393  00000-0  23252-3 0  9992
2 28654  98.8601  71.8221 0013364 250.3855 109.5875 14.13458666  9643
CO-58
1 28895U 05043F   24356.33020909  .00003488  00000-0  59315-3 0  9999
2 28895  98.2242 132.9781 0015881 124.5680 235.7026 14.69680472 21927
CO-65
1 32785U 08021C   24356.56038180  .00008846  00000-0  69562-3 0  9994
2 32785  97.7710 321.1025 0012847  81.7105 278.5575 15.01030136903546
AAUSAT2
1 32788U 08021F   24356.40783742  .00063680  00000-0  16995-2 0  9999
2 32788  97.6057 339.7156 0001999 127.9979 232.1446 15.37894191906870
CO-66
1 32791U 08021J   24356.40895411  .00019080  00000-0  11263-2 0  9998
2 32791  97.7123 327.7249 0006716  47.2065 312.9728 15.11555236904729
RS-30
1 32953U 08025A   24356.59053271  .00000041  00000-0  22502-3 0  9998
2 32953  82.5036 332.9198 0020572  57.7046 302.6023 12.43155442752278
PRISM
1 33493U 09002B   24356.12023134  .00073275  00000-0  17352-2 0  9993
2 33493  98.1748  62.2584 0007461 317.1897  42.8766 15.41481152867592
NOAA-19
1 33591U 09005A   24356.57871449  .00000325  00000-0  19745-3 0  9999
2 33591  99.0235  54.1482 0014607 122.3582 237.9006 14.13234666817836
SRMSAT
1 37841U 11058D   24356.57325286  .00000597  00000-0  18147-3 0  9991
2 37841  19.9715 103.2413 0011832 355.7679 110.6158 14.11314783681288
RS-40
1 38735U 12041C   24356.53521984  .00000032  00000-0  16166-3 0  9999
2 38735  82.4766  53.0621 0017962 167.7690 192.3829 12.42622417562445
ZACUBE-1
1 39417U 13066B   24356.40560813  .00008578  00000-0  80439-3 0  9992
2 39417  97.7590 308.9370 0044955 259.8692  99.7455 14.93479194599486
Delfi-N3xt
1 39428U 13066N   24356.31255804  .00010018  00000-0  11243-2 0  9993
2 39428  97.8374 270.3718 0090329 198.7015 161.0874 14.84010951593780
GOMX-1
1 39430U 13066Q   24356.58629118  .00003832  00000-0  61419-3 0  9995
2 39430  97.7032 219.5779 0136256  16.4815 344.0754 14.66208871590304
LO-74
1 39440U 13066AA  24356.28852328  .00008136  00000-0  87656-3 0  9997
2 39440  97.8330 296.5512 0066694  22.4783 337.9330 14.87059832596105
AO-73
1 39444U 13066AE  24356.39860885  .00010679  00000-0  89906-3 0  9995
2 39444  97.7441 312.7026 0041425 236.1505 123.5772 14.97737177598076
DTUSAT-2
1 40030U 14033W   24355.82793433  .00011923  00000-0  87016-3 0  9997
2 40030  98.0367 314.1760 0008020 282.3129  77.7197 15.03827874570691
EO-80
1 40032U 14033Y   24356.58920021  .00011708  00000-0  85301-3 0  9994
2 40032  98.0231 314.8492 0007838 206.0912 153.9919 15.03897407570789
XW-2C
1 40906U 15049H   24356.45153203  .00146196  00000-0  10609-2 0  9996
2 40906  97.4539  21.1806 0003601  11.7595 348.3752 15.72952192513558
LILACSAT-2
1 40908U 15049K   24356.51988075  .00015783  00000-0  49770-3 0  9997
2 40908  97.5188   7.3740 0012517  54.4190 305.8217 15.32891571512120
IO-86
1 40931U 15052B   24337.09180034  .00002217  00000-0  20975-3 0  9992
2 40931   5.9986 232.5457 0013173 302.5393  57.3463 14.78392648496340
ChubuSat-2
1 41338U 16012B   24356.13049626  .00009050  00000-0  50166-3 0  9995
2 41338  30.9998 264.0941 0010941 316.8082  43.1698 15.12430291485880
ChubuSat-3
1 41339U 16012C   24356.17152098  .00007499  00000-0  42725-3 0  9995
2 41339  31.0063 263.8653 0011054 319.2524  40.7287 15.11378838485768
Horyu-4
1 41340U 16012D   24356.59563792  .00025290  00000-0  94338-3 0  9996
2 41340  30.9994 186.1072 0008237  83.7240 276.4340 15.26199809486708
Lapan A3
1 41603U 16040E   24356.53068324  .00005004  00000-0  18659-3 0  9997
2 41603  97.1392   2.0399 0012359 147.3708 212.8298 15.27792229471808
Pratham
1 41783U 16059A   24356.43867131  .00001432  00000-0  26885-3 0  9999
2 41783  97.8287   7.0158 0032796 144.0186 216.3235 14.65793224439964
CAS-2T
1 41847U 16066G   24356.32383092  .00001728  00000-0  25789-3 0  9995
2 41847  98.4413  66.2047 0348803 333.3513  25.0110 14.42569210426462
CAS-4B
1 42759U 17034B   24356.56040786  .00039823  00000-0  91105-3 0  9992
2 42759  43.0122 238.0641 0015158 193.9495 166.0946 15.42020193416184
CAS-4A
1 42761U 17034D   24356.53940763  .00040325  00000-0  91285-3 0  9994
2 42761  43.0161 236.3015 0016231 201.2599 158.7585 15.42312637416192
D-SAT
1 42794U 17036AF  24356.39920866  .00009684  00000-0  59865-3 0  9999
2 42794  97.4984 332.1515 0098756 230.1603 129.0905 15.06005585408844
TechnoSat
1 42829U 17042E   24356.55639522  .00006454  00000-0  52886-3 0  9997
2 42829  97.3856 167.5820 0013355 154.9206 205.2669 14.99524984405226
AO-91
1 43017U 17073E   24356.43781212  .00014351  00000-0  79213-3 0  9990
2 43017  97.5470 225.7494 0191783  24.7590 336.2688 14.99624956383665
S-Net D
1 43186U 18014G   24356.30375393  .00007301  00000-0  46955-3 0  9992
2 43186  97.5757 255.1582 0011729  87.4486 272.8085 15.08637335376671
S-Net B
1 43187U 18014H   24356.30727770  .00007442  00000-0  47862-3 0  9997
2 43187  97.5765 255.1242 0012562  83.5947 276.6711 15.08624009376671
S-Net A
1 43188U 18014J   24356.56995167  .00007631  00000-0  49039-3 0  9991
2 43188  97.5768 255.5133 0012382  83.4342 276.8295 15.08645086376718
S-Net C
1 43189U 18014K   24356.30933896  .00007436  00000-0  47806-3 0  9998
2 43189  97.5789 255.2402 0014130  77.9072 282.3739 15.08621432375228
Ten-Koh
1 43677U 18084G   24356.39870768  .00005760  00000-0  48313-3 0  9996
2 43677  98.0801 156.0580 0015166 114.5393 245.7411 14.98703802334731
PO-101
1 43678U 18084H   24356.55067818  .00003795  00000-0  33583-3 0  9998
2 43678  98.0879 160.4969 0010050 125.0924 235.1240 14.96898039334931
QO-100
1 43700U 18090A   24356.53278538  .00000157  00000-0  00000-0 0  9996
2 43700   0.0164  64.2302 0002638 246.7938 357.1760  1.00274655 22230
MinXSS-2
1 43758U 18099A   24356.09497844  .00018400  00000-0  91806-3 0  9999
2 43758  97.5290  56.3477 0014599  38.0088 322.2172 15.17474129331049
AO-95
1 43770U 18099N   24356.15556820  .00012784  00000-0  74685-3 0  9995
2 43770  97.5201  50.4874 0013468  83.5147 276.7617 15.11960363330754
RANGE-B
1 43772U 18099Q   24356.12777115  .00025550  00000-0  11863-2 0  9999
2 43772  97.4988  55.0491 0003969 349.9492  10.1663 15.19993442331013
RANGE-A
1 43773U 18099R   24356.57532228  .00007086  00000-0  48685-3 0  9990
2 43773  97.4754  43.9713 0013268  58.6119 301.6404 15.06181433330601
MOVE-II
1 43780U 18099Y   24356.15644666  .00052391  00000-0  15825-2 0  9990
2 43780  97.4940  59.2553 0004916  48.2793 311.8869 15.34060582331398
SNUSat 2
1 43782U 18099AA  24356.58940482  .00010809  00000-0  66397-3 0  9993
2 43782  97.4878  48.9422 0013662  26.5766 333.6162 15.10176598330809
SnugLite
1 43784U 18099AC  24356.08730985  .00013402  00000-0  77840-3 0  9992
2 43784  97.4698  47.7743 0004722  43.9391 316.2214 15.12223878330821
ITASat 1
1 43786U 18099AE  24356.57145876  .00010790  00000-0  68213-3 0  9998
2 43786  97.4847  48.8621 0016828  73.7902 286.5177 15.09085417330788
EAGLET 1
1 43790U 18099AJ  24356.13494770  .00006522  00000-0  44581-3 0  9995
2 43790  97.5040  48.8157 0014137  57.6995 302.5599 15.06390811330384
ESEO
1 43792U 18099AL  24356.59550214  .00002970  00000-0  23447-3 0  9994
2 43792  97.4813  44.6375 0009002  27.4135 332.7563 15.01408972330306
CSIM
1 43793U 18099AM  24356.13483108  .00053976  00000-0  16521-2 0  9998
2 43793  97.5097  61.1030 0008340  19.3475 340.8082 15.33610371331237
